• In Uzbekistan
  • List of Countries
  • For 7 days
  • Water Temperature
  • Satellite Maps
  • Weather Map
  • Weather Widgets
  • user-avatar
    Login

    Hourly Weather Kamasha

    Today, 17 October, Wednesday

    Time Temperature Precipitation Wind Pressure Humidity
    00:00 +8°C° 0 mm 1 mps 641 mmHg 79%
    01:00 +8°C° 0 mm 1 mps 641 mmHg 77%
    02:00 +8°C° 0 mm 1 mps 641 mmHg 75%
    03:00 +8°C° 0 mm 1 mps 640 mmHg 73%
    04:00 +8°C° 0 mm 1 mps 640 mmHg 70%
    05:00 +8°C° 0 mm 1 mps 640 mmHg 68%
    06:00 +8°C° 0 mm 1 mps 640 mmHg 66%
    07:00 +10°C° 0 mm 1 mps 641 mmHg 58%
    08:00 +12°C° 0 mm 1 mps 641 mmHg 51%
    09:00 +14°C° 0 mm 1 mps 642 mmHg 44%
    10:00 +15°C° 0 mm 2 mps 642 mmHg 43%
    11:00 +15°C° 0 mm 2 mps 642 mmHg 43%
    12:00 +16°C° 0 mm 3 mps 642 mmHg 43%
    13:00 +16°C° 0 mm 3 mps 642 mmHg 46%
    14:00 +16°C° 0 mm 3 mps 642 mmHg 50%
    15:00 +14°C° 0 mm 3 mps 641 mmHg 54%
    16:00 +14°C° 0 mm 2 mps 641 mmHg 63%
    17:00 +12°C° 0 mm 2 mps 640 mmHg 73%
    18:00 +10°C° 0 mm 1 mps 639 mmHg 82%
    19:00 +10°C° 0 mm 1 mps 639 mmHg 78%
    20:00 +9°C° 0 mm 1 mps 639 mmHg 75%
    21:00 +9°C° 0 mm 1 mps 639 mmHg 71%
    22:00 +9°C° 0 mm 1 mps 639 mmHg 66%
    23:00 +9°C° 0 mm 1 mps 639 mmHg 60%

    Tomorrow, 18 October, Thursday

    Time Temperature Precipitation Wind Pressure Humidity
    00:00 +9°C° 0 mm 1 mps 638 mmHg 55%
    01:00 +9°C° 0 mm 1 mps 638 mmHg 52%
    02:00 +8°C° 0 mm 1 mps 638 mmHg 48%
    03:00 +8°C° 0 mm 1 mps 638 mmHg 45%
    04:00 +8°C° 0 mm 1 mps 638 mmHg 42%
    05:00 +8°C° 0 mm 1 mps 638 mmHg 39%
    06:00 +8°C° 0 mm 1 mps 637 mmHg 36%
    07:00 +10°C° 0 mm 1 mps 638 mmHg 34%
    08:00 +12°C° 0 mm 1 mps 639 mmHg 31%
    09:00 +14°C° 0 mm 1 mps 640 mmHg 29%
    10:00 +15°C° 0 mm 1 mps 640 mmHg 30%
    11:00 +16°C° 0 mm 2 mps 641 mmHg 31%
    12:00 +17°C° 0 mm 2 mps 641 mmHg 32%
    13:00 +17°C° 0 mm 2 mps 640 mmHg 36%
    14:00 +16°C° 0 mm 2 mps 640 mmHg 40%
    15:00 +16°C° 0 mm 2 mps 640 mmHg 45%
    16:00 +14°C° 0 mm 2 mps 639 mmHg 56%
    17:00 +12°C° 0 mm 1 mps 639 mmHg 67%
    18:00 +10°C° 0 mm 1 mps 638 mmHg 78%
    19:00 +10°C° 0 mm 1 mps 638 mmHg 73%
    20:00 +9°C° 0 mm 1 mps 638 mmHg 67%
    21:00 +9°C° 0 mm 1 mps 638 mmHg 62%
    22:00 +9°C° 0 mm 1 mps 638 mmHg 57%
    23:00 +9°C° 0 mm 1 mps 638 mmHg 52%

    Day after tomorrow, 19 October, Friday

    Time Temperature Precipitation Wind Pressure Humidity
    00:00 +8°C° 0 mm 2 mps 638 mmHg 47%
    01:00 +8°C° 0 mm 2 mps 638 mmHg 44%
    02:00 +7°C° 0 mm 2 mps 638 mmHg 41%
    03:00 +7°C° 0 mm 2 mps 638 mmHg 38%
    04:00 +7°C° 0 mm 2 mps 638 mmHg 36%
    05:00 +7°C° 0 mm 2 mps 638 mmHg 34%
    06:00 +7°C° 0 mm 2 mps 637 mmHg 32%
    07:00 +9°C° 0 mm 2 mps 638 mmHg 29%
    08:00 +13°C° 0 mm 1 mps 639 mmHg 25%
    09:00 +15°C° 0 mm 1 mps 640 mmHg 22%
    10:00 +16°C° 0 mm 1 mps 640 mmHg 23%
    11:00 +17°C° 0 mm 2 mps 640 mmHg 24%
    12:00 +18°C° 0 mm 2 mps 640 mmHg 24%
    13:00 +18°C° 0 mm 2 mps 640 mmHg 29%
    14:00 +17°C° 0 mm 2 mps 640 mmHg 33%
    15:00 +17°C° 0 mm 2 mps 639 mmHg 38%
    16:00 +15°C° 0 mm 2 mps 639 mmHg 48%
    17:00 +13°C° 0 mm 2 mps 638 mmHg 57%
    18:00 +11°C° 0 mm 1 mps 637 mmHg 67%
    19:00 +10°C° 0 mm 2 mps 637 mmHg 66%
    20:00 +9°C° 0 mm 2 mps 637 mmHg 64%
    21:00 +9°C° 0 mm 2 mps 637 mmHg 63%
    22:00 +9°C° 0 mm 2 mps 637 mmHg 63%
    23:00 +9°C° 0 mm 2 mps 637 mmHg 63%

    20 October, Saturday

    Time Temperature Precipitation Wind Pressure Humidity
    00:00 +9°C° 0 mm 2 mps 637 mmHg 63%
    01:00 +9°C° 0 mm 2 mps 636 mmHg 63%
    02:00 +9°C° 0 mm 2 mps 636 mmHg 62%
    03:00 +8°C° 0 mm 2 mps 636 mmHg 62%
    04:00 +8°C° 0 mm 2 mps 636 mmHg 58%
    05:00 +8°C° 0 mm 2 mps 636 mmHg 55%
    06:00 +8°C° 0 mm 2 mps 636 mmHg 51%
    07:00 +12°C° 0 mm 2 mps 637 mmHg 44%
    08:00 +14°C° 0 mm 1 mps 637 mmHg 37%
    09:00 +18°C° 0 mm 1 mps 638 mmHg 30%
    10:00 +19°C° 0 mm 1 mps 638 mmHg 29%
    11:00 +19°C° 0 mm 2 mps 638 mmHg 29%
    12:00 +19°C° 0 mm 2 mps 638 mmHg 28%
    13:00 +19°C° 0 mm 2 mps 638 mmHg 31%
    14:00 +19°C° 0 mm 2 mps 638 mmHg 34%
    15:00 +19°C° 0 mm 2 mps 637 mmHg 36%
    16:00 +18°C° 0 mm 1 mps 637 mmHg 44%
    17:00 +15°C° 0 mm 1 mps 636 mmHg 51%
    18:00 +12°C° 0 mm 1 mps 636 mmHg 58%
    19:00 +12°C° 0 mm 1 mps 636 mmHg 55%
    20:00 +12°C° 0 mm 1 mps 636 mmHg 53%
    21:00 +12°C° 0 mm 1 mps 636 mmHg 50%
    22:00 +12°C° 0 mm 1 mps 636 mmHg 50%
    23:00 +12°C° 0 mm 1 mps 636 mmHg 49%

    21 October, Sunday

    Time Temperature Precipitation Wind Pressure Humidity
    00:00 +10°C° 0 mm 2 mps 635 mmHg 48%
    01:00 +10°C° 0 mm 2 mps 635 mmHg 48%
    02:00 +10°C° 0 mm 2 mps 635 mmHg 49%
    03:00 +10°C° 0 mm 2 mps 635 mmHg 49%
    04:00 +10°C° 0 mm 2 mps 635 mmHg 49%
    05:00 +10°C° 0 mm 2 mps 635 mmHg 48%
    06:00 +10°C° 0 mm 2 mps 635 mmHg 48%
    07:00 +13°C° 0 mm 1 mps 635 mmHg 45%
    08:00 +15°C° 0 mm 1 mps 636 mmHg 42%
    09:00 +18°C° 0 mm 1 mps 637 mmHg 39%
    10:00 +18°C° 0 mm 1 mps 637 mmHg 39%
    11:00 +18°C° 0 mm 2 mps 637 mmHg 38%
    12:00 +19°C° 0 mm 2 mps 637 mmHg 38%
    13:00 +18°C° 0 mm 2 mps 636 mmHg 41%
    14:00 +18°C° 0 mm 2 mps 636 mmHg 43%
    15:00 +18°C° 0 mm 2 mps 635 mmHg 46%
    16:00 +16°C° 0 mm 1 mps 635 mmHg 52%
    17:00 +15°C° 0 mm 1 mps 635 mmHg 59%
    18:00 +13°C° 0 mm 1 mps 634 mmHg 66%
    19:00 +13°C° 0 mm 1 mps 634 mmHg 66%
    20:00 +12°C° 0 mm 1 mps 634 mmHg 67%
    21:00 +12°C° 0 mm 1 mps 634 mmHg 67%
    22:00 +11°C° 0 mm 1 mps 634 mmHg 67%
    23:00 +11°C° 0 mm 1 mps 634 mmHg 67%

    22 October, Monday

    Time Temperature Precipitation Wind Pressure Humidity
    00:00 +11°C° 0 mm 1 mps 634 mmHg 67%
    01:00 +11°C° 0 mm 1 mps 634 mmHg 68%
    02:00 +11°C° 0 mm 1 mps 634 mmHg 68%
    03:00 +11°C° 0 mm 1 mps 633 mmHg 68%
    04:00 +10°C° 0 mm 1 mps 634 mmHg 69%
    05:00 +10°C° 0 mm 1 mps 634 mmHg 69%
    06:00 +10°C° 0 mm 1 mps 634 mmHg 70%
    07:00 +12°C° 0 mm 1 mps 634 mmHg 64%
    08:00 +13°C° 0 mm 1 mps 635 mmHg 59%
    09:00 +15°C° 0 mm 1 mps 636 mmHg 53%
    10:00 +16°C° 0 mm 1 mps 636 mmHg 51%
    11:00 +17°C° 0 mm 2 mps 636 mmHg 50%
    12:00 +18°C° 0 mm 2 mps 636 mmHg 48%
    13:00 +17°C° 0 mm 2 mps 636 mmHg 50%
    14:00 +17°C° 0 mm 2 mps 636 mmHg 53%
    15:00 +16°C° 0 mm 2 mps 636 mmHg 56%
    16:00 +15°C° 0 mm 1 mps 635 mmHg 64%
    17:00 +13°C° 0 mm 1 mps 635 mmHg 72%
    18:00 +12°C° 0 mm 1 mps 635 mmHg 80%
    19:00 +12°C° 0.1 mm 1 mps 635 mmHg 79%
    20:00 +12°C° 0.1 mm 1 mps 636 mmHg 78%
    21:00 +11°C° 0.1 mm 1 mps 636 mmHg 77%
    22:00 +11°C° 0.1 mm 1 mps 636 mmHg 76%
    23:00 +11°C° 0.1 mm 1 mps 636 mmHg 75%
    Show more